Location: Red Bud (historical)
(37.7759°N, 88.4053°W)
Time: 11:57:20
(UTC+00:00)

Tianhe-1 - Visible Passes

Search period start: 18 June 2021 00:00
Search period end: 28 June 2021 00:00
Orbit: 374 x 386 km, 41.5° (Epoch: 18 June)

Date Brightness Start Highest point End Pass type
(mag) Time Alt. Az. Time Alt. Az. Time Alt. Az.
18 Jun 2.3 09:22:26 17° SSW 09:24:09 29° SSE 09:26:57 10° E visible
19 Jun 3.4 08:24:11 15° SE 08:24:11 15° SE 08:25:24 10° ESE visible
19 Jun 1.0 09:56:38 10° WSW 09:59:46 86° SSE 10:02:57 10° ENE visible
20 Jun 1.4 08:58:00 37° SSW 08:58:49 50° SSE 09:01:53 10° ENE visible
21 Jun 3.5 07:59:38 17° E 07:59:38 17° E 08:00:39 10° E visible
21 Jun 1.4 09:31:45 13° W 09:34:31 64° NNW 09:37:39 10° ENE visible
22 Jun 0.8 08:33:21 80° SSW 08:33:28 83° SSE 08:36:37 10° ENE visible
23 Jun 3.9 07:34:55 14° E 07:34:55 14° E 07:35:29 10° ENE visible
23 Jun 1.9 09:07:01 17° W 09:09:13 48° N 09:12:17 10° ENE visible
24 Jun 1.8 08:08:34 53° NE 08:08:34 53° NE 08:11:11 10° ENE visible
24 Jun 2.4 09:42:05 10° WNW 09:45:04 39° N 09:48:04 10° ENE visible
25 Jun 2.2 08:42:14 22° WNW 08:43:51 41° N 08:46:51 10° ENE visible
26 Jun 3.0 07:43:49 30° NE 07:43:49 30° NE 07:45:42 10° ENE visible
26 Jun 2.2 09:16:39 10° WNW 09:19:40 42° N 09:22:41 10° E visible
27 Jun 2.3 08:17:36 32° NW 08:18:24 39° N 08:21:23 10° ENE visible
27 Jun 1.3 09:52:14 10° WNW 09:55:22 74° NNE 09:58:31 10° ESE visible
